Location: Bailleul
(50.3375°N, 2.8513°E)
Time: 04:39:09
(UTC+00:00)

SL-16 R/B - Pass Details

Date: 19 April 2021
Orbit: 840 x 849 km, 71.0° (Epoch: 09 May)

Event Time Altitude Azimuth Distance (km) Brightness Sun altitude
Rises 20:12:35 0° 332° (NNW) 3,425 6.6 -12.5°
Reaches altitude 10° 20:15:15 10° 341° (NNW) 2,486 5.5 -12.9°
Maximum altitude 20:20:31 37° 48° (NE) 1,300 3.1 -13.5°
Enters shadow 20:24:12 18° 107° (ESE) 1,970 3.6 -14.0°
